Location: Berg
(48.4333°N, 13.9167°E)
Time: 05:45:52
(UTC+00:00)

ATLAS CENTAUR R/B - Pass Details

Date: 22 January 2021
Orbit: 475 x 670 km, 64.7° (Epoch: 06 March)

Event Time Altitude Azimuth Distance (km) Brightness Sun altitude
Rises 05:52:10 0° 222° (SW) 2,540 4.5 -8.8°
Reaches altitude 10° 05:54:19 10° 224° (SW) 1,651 3.5 -8.5°
Maximum altitude 05:57:58 74° 309° (NW) 500 0.9 -7.9°
Drops below altitude 10° 06:01:38 10° 36° (NE) 1,656 4.0 -7.3°
Sets 06:03:47 0° 38° (NE) 2,548 4.9 -7.0°
